Columbia, MO

1:08 PM CDT on April 26, 2017 (GMT -0500)
Columbia Regional

Weather History for KCOU - September, 2013

Change the Weather History Date:

Saturday, September 28, 2013

  Actual Average Record
Temperature  
Mean Temperature 68 °F 62 °F  
Max Temperature 78 °F 74 °F 99 °F (1953)
Min Temperature 58 °F 51 °F 32 °F (1889)
Degree Days  
Heating Degree Days 0 5  
Month to date heating degree days 12 54  
Since 1 July heating degree days 12 56  
Cooling Degree Days 3 2  
Month to date cooling degree days 207 140  
Year to date cooling degree days 1274 1223  
Growing Degree Days 19 (Base 50)    
Moisture  
Dew Point 63 °F    
Average Humidity 77    
Maximum Humidity 90    
Minimum Humidity 64    
Precipitation  
Precipitation 0.21 in 0.13 in 2.47 in (1934)
Month to date precipitation 2.42 3.62  
Year to date precipitation 35.51 33.37  
Snow  
Snow 0.00 in 0.00 in 0.00 in (2015)
Month to date snowfall 0.0 0.0  
Since 1 July snowfall 0.0 0.0  
Since 1 September snowfall 0.0 0.0  
Snow Depth 0.00 in    
Sea Level Pressure  
Sea Level Pressure 29.97 in    
Wind  
Wind Speed 11 mph (WSW)    
Max Wind Speed 20 mph    
Max Gust Speed 26 mph    
Visibility 9 miles    
Events Rain    
T = Trace of Precipitation, MM = Missing Value Source: NWS Daily Summary

Daily Weather History Graph

Daily Weather History Graph

Search for Another Location

Airport or City:

Trip Planner

Search our weather history database for the weather conditions in past years. The results will help you decide how hot, cold, wet, or windy it might be!

Date:

Astronomy

Sep. 28, 2013 Rise Set
Actual Time 7:02 AM CDT 6:55 PM CDT
Civil Twilight 6:35 AM CDT 7:22 PM CDT
Nautical Twilight 6:04 AM CDT 7:53 PM CDT
Astronomical Twilight 5:33 AM CDT 8:24 PM CDT
Moon 12:53 AM CDT (9/28) 3:12 PM CDT (9/28)
Length of Visible Light 12h 46m
Length of Day
11h 53m
Waning Crescent, 36% of the Moon is Illuminated
Sep 28
Waning Crescent
Oct 4
New
Oct 11
First Quarter
Oct 18
Full
Oct 26
Last Quarter

Hourly Weather History & Observations

Time (CDT) Temp. Dew Point Humidity Pressure Visibility Wind Dir Wind Speed Gust Speed Precip Events Conditions
12:54 AM 68.0 °F 61.0 °F 78% 29.97 in 10.0 mi SSE 9.2 mph - N/A   Clear
1:54 AM 68.0 °F 60.1 °F 76% 29.94 in 10.0 mi SSE 11.5 mph - N/A   Partly Cloudy
2:54 AM 66.9 °F 60.1 °F 79% 29.94 in 10.0 mi SSE 10.4 mph - N/A   Partly Cloudy
3:54 AM 66.9 °F 60.1 °F 79% 29.94 in 10.0 mi SSE 12.7 mph - N/A   Mostly Cloudy
4:54 AM 66.0 °F 60.1 °F 81% 29.94 in 10.0 mi SE 11.5 mph - N/A   Partly Cloudy
5:54 AM 64.9 °F 60.1 °F 84% 29.95 in 10.0 mi SSE 10.4 mph - N/A   Clear
6:54 AM 66.0 °F 61.0 °F 84% 29.95 in 10.0 mi SSE 12.7 mph - N/A   Mostly Cloudy
7:54 AM 68.0 °F 62.1 °F 81% 29.95 in 10.0 mi SSE 12.7 mph - N/A   Overcast
8:54 AM 71.1 °F 63.0 °F 75% 29.94 in 10.0 mi SSE 16.1 mph - N/A   Mostly Cloudy
9:54 AM 72.0 °F 63.0 °F 73% 29.94 in 10.0 mi SSE 15.0 mph - N/A   Mostly Cloudy
10:54 AM 77.0 °F 64.0 °F 64% 29.93 in 10.0 mi South 17.3 mph 25.3 mph N/A   Overcast
11:54 AM 72.0 °F 66.0 °F 81% 29.98 in 10.0 mi West 8.1 mph - 0.08 in Rain Light Rain
12:22 PM 71.1 °F 66.9 °F 87% 30.00 in 2.0 mi SW 6.9 mph - 0.07 in Rain Light Rain
12:31 PM 70.0 °F 66.9 °F 90% 29.99 in 6.0 mi SW 6.9 mph - 0.08 in Rain Light Rain
12:54 PM 71.1 °F 68.0 °F 90% 29.96 in 9.0 mi South 5.8 mph - 0.08 in   Overcast
1:54 PM 73.9 °F 69.1 °F 85% 29.93 in 10.0 mi SSE 10.4 mph - 0.00 in   Mostly Cloudy
2:54 PM 75.0 °F 70.0 °F 84% 29.92 in 10.0 mi South 8.1 mph - 0.01 in   Overcast
3:54 PM 77.0 °F 68.0 °F 74% 29.92 in 10.0 mi SSW 10.4 mph - N/A   Mostly Cloudy
4:54 PM 75.0 °F 69.1 °F 82% 29.92 in 10.0 mi SSW 8.1 mph - 0.00 in Rain Light Rain
5:34 PM 72.0 °F 68.0 °F 87% 29.96 in 7.0 mi West 13.8 mph - 0.01 in Rain Light Rain
5:54 PM 70.0 °F 66.9 °F 90% 29.95 in 7.0 mi WNW 19.6 mph - 0.02 in Rain Light Rain
6:19 PM 66.9 °F 64.0 °F 90% 29.97 in 10.0 mi NW 11.5 mph - 0.01 in Rain Light Rain
6:21 PM 66.9 °F 64.0 °F 90% 29.97 in 10.0 mi NW 11.5 mph - 0.01 in Rain Light Rain
6:30 PM 66.0 °F 64.0 °F 93% 29.97 in 10.0 mi NW 13.8 mph - 0.01 in Rain Light Rain
6:45 PM 64.9 °F 63.0 °F 93% 29.98 in 10.0 mi NW 12.7 mph - 0.01 in   Overcast
6:54 PM 64.9 °F 62.1 °F 90% 29.97 in 8.0 mi NW 13.8 mph 19.6 mph 0.01 in Rain Light Rain
7:27 PM 64.0 °F 61.0 °F 90% 29.99 in 10.0 mi NW 9.2 mph - 0.00 in   Overcast
7:35 PM 63.0 °F 61.0 °F 93% 29.99 in 10.0 mi NW 6.9 mph - 0.00 in   Overcast
7:54 PM 63.0 °F 61.0 °F 93% 29.99 in 10.0 mi NW 11.5 mph - 0.00 in   Overcast
8:54 PM 62.1 °F 59.0 °F 90% 30.02 in 10.0 mi NW 12.7 mph - N/A   Overcast
9:54 PM 60.1 °F 57.9 °F 93% 30.04 in 10.0 mi NW 11.5 mph - 0.00 in   Overcast
10:41 PM 60.1 °F 57.9 °F 93% 30.06 in 10.0 mi NNW 10.4 mph - 0.00 in   Overcast
10:54 PM 60.1 °F 57.9 °F 93% 30.05 in 8.0 mi NNW 9.2 mph - 0.00 in Rain Light Rain
11:01 PM 60.1 °F 57.9 °F 93% 30.07 in 5.0 mi NNW 9.2 mph - 0.00 in Rain Light Rain
11:54 PM 60.1 °F 57.0 °F 90% 30.06 in 10.0 mi NNW 6.9 mph - 0.01 in   Overcast